WZZ978 OOMS-LZIB

Flight info

Callsign WZZ978
Flight time N/A
Altitude 32000
Route ITLAK DCT NALKI G652 TOKRA DCT MEDPO DCT BOSOB DCT ITRUX Y511 NALBA/N0473F340 Y511 PMA Z712 WEJ L677 CVO L617 MENKU/N0458F360 Y661 ANTAR UN133 GUDIS DCT SOTIX DCT RIGRO DCT KOROS DCT ATFIR N133 OGOTA DCT RESLA DCT LOMOS DCT PADGU DCT GITMU DCT BALUX DCT BODZA DCT XOMBA
Aircraft A321/M-SDE3FGHIRWY/LB1

Departure

Time 2026-04-27 15:05
Airport Muscat International Airport (OOMS)

Arrival

Time N/A
Airport M. R. Štefánik Airport (LZIB)
Time Latitude Longitude Altitude Speed Heading
2026-04-27 14:34 23.60340 58.28576 34 ft 0 kts 84°
2026-04-27 14:54 23.60340 58.28569 33 ft 2 kts 85°
2026-04-27 14:55 23.60338 58.28547 34 ft 3 kts 85°
2026-04-27 14:55 23.60336 58.28525 33 ft 3 kts 84°
2026-04-27 14:55 23.60334 58.28503 34 ft 3 kts 82°
2026-04-27 14:55 23.60331 58.28482 32 ft 3 kts 73°
2026-04-27 14:56 23.60324 58.28463 32 ft 3 kts 47°
2026-04-27 14:56 23.60314 58.28454 31 ft 2 kts 359°
2026-04-27 14:56 23.60312 58.28453 31 ft 0 kts 355°
2026-04-27 14:58 23.60318 58.28453 33 ft 2 kts 355°
2026-04-27 14:58 23.60340 58.28451 32 ft 4 kts 355°
2026-04-27 14:58 23.60365 58.28448 32 ft 3 kts 355°
2026-04-27 14:59 23.60398 58.28445 34 ft 6 kts 355°
2026-04-27 14:59 23.60450 58.28440 34 ft 9 kts 355°
2026-04-27 14:59 23.60516 58.28434 34 ft 10 kts 355°
2026-04-27 14:59 23.60579 58.28428 34 ft 7 kts 355°
2026-04-27 15:00 23.60620 58.28442 34 ft 6 kts 41°
2026-04-27 15:00 23.60636 58.28487 34 ft 7 kts 83°
2026-04-27 15:00 23.60639 58.28541 34 ft 7 kts 85°
2026-04-27 15:00 23.60642 58.28600 34 ft 8 kts 92°
2026-04-27 15:01 23.60621 58.28648 34 ft 7 kts 137°
2026-04-27 15:01 23.60580 58.28670 34 ft 6 kts 151°
2026-04-27 15:01 23.60566 58.28713 34 ft 7 kts 88°
2026-04-27 15:01 23.60571 58.28789 34 ft 12 kts 85°
2026-04-27 15:02 23.60579 58.28885 34 ft 13 kts 85°
2026-04-27 15:02 23.60586 58.28978 34 ft 9 kts 84°
2026-04-27 15:02 23.60610 58.29020 34 ft 7 kts 32°
2026-04-27 15:02 23.60659 58.29026 33 ft 8 kts
2026-04-27 15:03 23.60717 58.29022 34 ft 10 kts 355°
2026-04-27 15:03 23.60786 58.29019 35 ft 10 kts
2026-04-27 15:03 23.60841 58.29034 34 ft 4 kts 360°
2026-04-27 15:03 23.60849 58.29002 35 ft 8 kts 265°
2026-04-27 15:04 23.60831 58.28739 36 ft 66 kts 265°
2026-04-27 15:04 23.60772 58.28024 33 ft 122 kts 264°
2026-04-27 15:04 23.60684 58.26929 38 ft 167 kts 265°
2026-04-27 15:04 23.60574 58.25615 506 ft 169 kts 265°
2026-04-27 15:05 23.60478 58.24376 1221 ft 160 kts 266°
2026-04-27 15:05 23.60370 58.23181 1792 ft 159 kts 267°
2026-04-27 15:05 23.60269 58.21959 2259 ft 164 kts 269°
2026-04-27 15:05 23.60171 58.20732 2602 ft 161 kts 269°
2026-04-27 15:06 23.60078 58.19517 2907 ft 161 kts 269°
2026-04-27 15:06 23.59982 58.18259 3059 ft 171 kts 269°
2026-04-27 15:06 23.59670 58.16975 3131 ft 189 kts 243°
2026-04-27 15:06 23.58944 58.15726 3249 ft 201 kts 242°
2026-04-27 15:07 23.58172 58.14381 3357 ft 213 kts 243°
2026-04-27 15:07 23.57389 58.13015 3700 ft 212 kts 243°
2026-04-27 15:07 23.56608 58.11646 3990 ft 215 kts 243°
2026-04-27 15:07 23.55802 58.10246 4212 ft 221 kts 243°
2026-04-27 15:08 23.54976 58.08793 4364 ft 232 kts 243°
2026-04-27 15:08 23.54110 58.07265 4493 ft 243 kts 242°
2026-04-27 15:08 23.53190 58.05645 4603 ft 260 kts 242°
2026-04-27 15:08 23.52215 58.03938 4871 ft 269 kts 242°
2026-04-27 15:09 23.51221 58.02205 5285 ft 271 kts 242°
2026-04-27 15:09 23.50217 58.00456 5759 ft 273 kts 242°
2026-04-27 15:09 23.49210 57.98700 6285 ft 273 kts 242°
2026-04-27 15:09 23.48200 57.96944 6773 ft 275 kts 241°
2026-04-27 15:10 23.47181 57.95169 7211 ft 277 kts 241°
2026-04-27 15:10 23.46154 57.93385 7780 ft 279 kts 240°
2026-04-27 15:10 23.45120 57.91593 8292 ft 280 kts 240°
2026-04-27 15:10 23.44083 57.89789 8821 ft 280 kts 240°
2026-04-27 15:11 23.43063 57.88013 9504 ft 275 kts 240°
2026-04-27 15:11 23.42052 57.86247 10048 ft 276 kts 240°
2026-04-27 15:11 23.41013 57.84427 10289 ft 293 kts 240°
2026-04-27 15:11 23.39927 57.82482 10428 ft 307 kts 241°
2026-04-27 15:12 23.38816 57.80430 10558 ft 322 kts 242°
2026-04-27 15:12 23.37669 57.78282 10719 ft 334 kts 242°
2026-04-27 15:12 23.36482 57.76051 10857 ft 346 kts 241°
2026-04-27 15:12 23.35262 57.73763 11170 ft 352 kts 241°
2026-04-27 15:13 23.34013 57.71432 11382 ft 364 kts 241°
2026-04-27 15:13 23.32707 57.69007 11508 ft 379 kts 240°
2026-04-27 15:13 23.31365 57.66521 11644 ft 393 kts 240°
2026-04-27 15:13 23.29938 57.63881 11878 ft 404 kts 240°
2026-04-27 15:14 23.28504 57.61232 12329 ft 408 kts 240°
2026-04-27 15:14 23.27059 57.58564 12805 ft 412 kts 240°
2026-04-27 15:14 23.25626 57.55916 13749 ft 397 kts 239°
2026-04-27 15:14 23.24274 57.53415 14718 ft 383 kts 240°
2026-04-27 15:15 23.22932 57.50932 15293 ft 380 kts 240°
2026-04-27 15:15 23.21593 57.48456 15701 ft 380 kts 240°
2026-04-27 15:15 23.20250 57.45973 16105 ft 382 kts 240°
2026-04-27 15:15 23.18901 57.43480 16517 ft 383 kts 240°
2026-04-27 15:16 23.17548 57.40978 16935 ft 385 kts 240°
2026-04-27 15:16 23.16190 57.38466 17337 ft 386 kts 240°
2026-04-27 15:16 23.14825 57.35942 17725 ft 388 kts 241°
2026-04-27 15:16 23.13451 57.33408 18112 ft 390 kts 241°
2026-04-27 15:17 23.12067 57.30864 18453 ft 392 kts 241°
2026-04-27 15:17 23.10680 57.28321 18882 ft 391 kts 241°
2026-04-27 15:17 23.09295 57.25781 19227 ft 392 kts 241°
2026-04-27 15:17 23.07904 57.23223 19566 ft 394 kts 241°
2026-04-27 15:18 23.06509 57.20651 19905 ft 396 kts 241°
2026-04-27 15:18 23.05108 57.18068 20223 ft 398 kts 241°
2026-04-27 15:18 23.03699 57.15473 20545 ft 400 kts 241°
2026-04-27 15:18 23.02280 57.12865 20863 ft 402 kts 241°
2026-04-27 15:19 23.00854 57.10246 21202 ft 405 kts 241°
2026-04-27 15:19 22.99416 57.07612 21561 ft 407 kts 241°
2026-04-27 15:19 22.97971 57.04967 21877 ft 408 kts 241°
2026-04-27 15:19 22.96537 57.02346 22169 ft 410 kts 241°
2026-04-27 15:20 22.95057 56.99643 22469 ft 412 kts 241°
2026-04-27 15:20 22.93610 56.96999 22761 ft 414 kts 241°
2026-04-27 15:20 22.92139 56.94309 23052 ft 416 kts 241°
2026-04-27 15:20 22.90663 56.91612 23409 ft 415 kts 241°
2026-04-27 15:21 22.89190 56.88922 23758 ft 414 kts 242°
2026-04-27 15:21 22.87723 56.86241 24100 ft 413 kts 242°
2026-04-27 15:21 22.86262 56.83572 24440 ft 412 kts 242°
2026-04-27 15:21 22.84799 56.80903 24764 ft 411 kts 242°
2026-04-27 15:22 22.83340 56.78239 25073 ft 411 kts 242°
2026-04-27 15:22 22.81883 56.75582 25411 ft 409 kts 242°
2026-04-27 15:22 22.80430 56.72936 25739 ft 408 kts 242°
2026-04-27 15:22 22.78980 56.70298 26096 ft 405 kts 242°
2026-04-27 15:23 22.77575 56.67750 27110 ft 381 kts 242°
2026-04-27 15:23 22.76239 56.65337 27963 ft 368 kts 243°
2026-04-27 15:23 22.74939 56.62981 28449 ft 362 kts 243°